Tracking 30744 objects as of 24-Jun-2025
HD Live streaming from Space Station
objects crossing your sky now

CZ-4B DEB

Track CZ-4B DEB now!
10-day predictions


NORAD ID: 40530
Int'l Code: 2013-057C
Perigee: 581.9 km
Apogee: 843.6 km
Inclination: 75.0 °
Period: 98.9 minutes
Semi major axis: 7083 km
RCS: Unknown
Launch date: October 25, 2013
Source: People's Republic of China (PRC)
Launch site: Jiuquan Satellite Launch Center, China (JSC)

Note: This is SATELLITE DEBRIS
Your satellite tracking list
Your tracking list is empty




NASA's NSSDC Master Catalog

Two Line Element Set (TLE):
1 40530U 13057C   25174.41030749  .00001755  00000-0  32008-3 0  9999
2 40530  75.0497 177.4233 0184741 263.0442  94.9684 14.56163448540088
Source of the keplerian elements: AFSPC